Location: Hokitika
(42.7170°S, 170.9670°E)
Time: 06:58:26
(UTC+13:00)

Cosmos 1763 Rocket - Pass Details

Date: 24 January 2019
Orbit: 733 x 780 km, 74.0° (Epoch: 18 February)

Event Time Altitude Azimuth Distance (km) Brightness Sun altitude
Rises 22:22:15 0° 203° (SSW) 3,270 8.0 -12.0°
Reaches altitude 10° 22:24:40 10° 204° (SSW) 2,329 7.1 -12.4°
Maximum altitude 22:29:56 72° 287° (WNW) 803 3.7 -13.1°
Enters shadow 22:34:29 13° 10° (N) 2,051 5.2 -13.7°
